Change the Weather History Date:

Monday, December 24, 2012

  Actual Average Record
Temperature  
Mean Temperature 19 °F 28 °F  
Max Temperature 29 °F 39 °F 69 °F (1955)
Min Temperature 9 °F 16 °F -18 °F (1983)
Degree Days  
Heating Degree Days 46    
Month to date heating degree days 747  
Cooling Degree Days 0    
Month to date cooling degree days 0  
Moisture  
Dew Point 13 °F    
Average Humidity 76    
Maximum Humidity 96    
Minimum Humidity 55    
Precipitation  
Precipitation T in 0.01 in 0.82 in (1982)
Month to date precipitation 0.13 0.33  
Year to date precipitation 7.98 16.67  
Sea Level Pressure  
Sea Level Pressure 29.93 in    
Wind  
Wind Speed 13 mph (ESE)    
Max Wind Speed 24 mph    
Max Gust Speed 29 mph    
Visibility 7 miles    
Events Snow    
T = Trace of Precipitation, MM = Missing Value Source: NWS Daily Summary

Daily Weather History Graph

Daily Weather History Graph

Search for Another Location

Airport or City:

Trip Planner

Search our weather history database for the weather conditions in past years. The results will help you decide how hot, cold, wet, or windy it might be!

Date:

Astronomy

Dec. 24, 2012 Rise Set
Actual Time 7:13 AM MST 4:32 PM MST
Civil Twilight 6:42 AM MST 5:02 PM MST
Nautical Twilight 6:08 AM MST 5:37 PM MST
Astronomical Twilight 5:35 AM MST 6:10 PM MST
Moon 2:01 PM MST (12/24) 3:53 AM MST (12/24)
Length of Visible Light 10h 20m
Length of Day
9h 18m
Waxing Gibbous, 89% of the Moon is Illuminated
Dec 24
Waxing Gibbous
Dec 28
Full
Jan 4
Last Quarter
Jan 11
New
Jan 18
First Quarter

Hourly Weather History & Observations

Time (MST) Temp. Windchill Dew Point Humidity Pressure Visibility Wind Dir Wind Speed Gust Speed Precip Events Conditions
12:53 AM 26.1 °F 20.5 °F 12.9 °F 58% 29.97 in 10.0 mi South 4.6 mph - N/A   Clear
1:53 AM 19.9 °F 11.1 °F 10.9 °F 68% 29.99 in 10.0 mi SSW 6.9 mph - N/A   Clear
2:53 AM 26.1 °F 17.6 °F 12.0 °F 55% 29.96 in 10.0 mi SSW 8.1 mph - N/A   Clear
3:53 AM 26.1 °F 19.4 °F 12.0 °F 55% 29.92 in 10.0 mi South 5.8 mph - N/A   Clear
4:53 AM 26.1 °F 19.4 °F 12.0 °F 55% 29.91 in 10.0 mi SSE 5.8 mph - N/A   Clear
5:53 AM 23.0 °F 17.0 °F 12.9 °F 65% 29.94 in 10.0 mi East 4.6 mph - N/A   Clear
6:53 AM 21.0 °F 10.6 °F 12.9 °F 71% 29.93 in 10.0 mi SE 9.2 mph - N/A   Partly Cloudy
7:53 AM 21.9 °F 9.2 °F 14.0 °F 72% 29.91 in 10.0 mi SE 13.8 mph - N/A   Overcast
8:53 AM 23.0 °F 11.1 °F 15.1 °F 72% 29.94 in 10.0 mi SE 12.7 mph - N/A   Overcast
9:53 AM 24.1 °F 11.5 °F 17.1 °F 75% 29.95 in 10.0 mi SE 15.0 mph - N/A   Clear
10:53 AM 27.0 °F 14.3 °F 19.9 °F 75% 29.94 in 10.0 mi SE 17.3 mph - N/A   Clear
11:53 AM 28.9 °F 16.9 °F 19.9 °F 69% 29.91 in 10.0 mi SE 17.3 mph - N/A   Overcast
12:53 PM 28.0 °F 14.3 °F 19.9 °F 72% 29.88 in 10.0 mi SE 21.9 mph - N/A   Overcast
1:53 PM 27.0 °F 13.2 °F 19.9 °F 75% 29.87 in 10.0 mi ESE 20.7 mph 27.6 mph N/A   Overcast
2:20 PM 26.6 °F 13.1 °F 19.4 °F 74% 29.76 in 10.0 mi ESE 19.6 mph 28.8 mph N/A   Mostly Cloudy
2:53 PM 26.1 °F 12.3 °F 19.9 °F 78% 29.86 in 10.0 mi ESE 19.6 mph - N/A   Overcast
3:14 PM 24.8 °F 10.0 °F 19.4 °F 80% 29.76 in 10.0 mi ESE 21.9 mph - N/A   Overcast
3:53 PM 21.9 °F 6.9 °F 19.0 °F 89% 29.89 in 7.0 mi ESE 19.6 mph 23.0 mph N/A   Overcast
4:19 PM 19.4 °F 3.6 °F 17.6 °F 93% 29.78 in 6.0 mi ESE 19.6 mph - N/A   Overcast
4:53 PM 19.0 °F 4.0 °F 17.1 °F 92% 29.91 in 6.0 mi ESE 17.3 mph 26.5 mph N/A   Overcast
5:50 PM 17.6 °F 1.7 °F 15.8 °F 93% 29.81 in 6.0 mi East 18.4 mph - N/A   Overcast
5:53 PM 18.0 °F 3.1 °F 16.0 °F 92% 29.96 in 6.0 mi East 16.1 mph 24.2 mph N/A   Overcast
6:53 PM 16.0 °F 0.1 °F 14.0 °F 92% 30.01 in 7.0 mi ESE 17.3 mph 24.2 mph N/A   Overcast
7:53 PM 14.0 °F -2.0 °F 12.0 °F 92% 30.03 in 7.0 mi East 16.1 mph - N/A   Overcast
8:35 PM 12.2 °F -4.3 °F 10.4 °F 92% 29.87 in 4.0 mi East 16.1 mph - 0.00 in Snow Light Snow
8:53 PM 12.0 °F -5.1 °F 10.0 °F 92% 30.05 in 4.0 mi East 17.3 mph - 0.00 in Snow Light Snow
9:38 PM 12.2 °F -3.7 °F 8.6 °F 85% 29.90 in 9.0 mi East 15.0 mph - 0.00 in   Overcast
9:53 PM 10.9 °F -6.5 °F 9.0 °F 92% 30.08 in 8.0 mi East 17.3 mph - 0.00 in   Overcast
10:39 PM 10.4 °F -7.2 °F 8.6 °F 92% 29.93 in 1.8 mi East 17.3 mph - 0.00 in Snow Light Snow
10:53 PM 10.9 °F -7.5 °F 8.1 °F 88% 30.10 in 1.2 mi East 19.6 mph 23.0 mph 0.00 in Snow Light Snow
11:01 PM 10.4 °F -8.6 °F 6.8 °F 85% 29.94 in 1.5 mi East 20.7 mph - 0.00 in Snow Light Snow
11:11 PM 10.4 °F -8.2 °F 6.8 °F 85% 29.95 in 1.2 mi East 19.6 mph - 0.00 in Snow Light Snow
11:20 PM 10.4 °F -7.2 °F 6.8 °F 85% 29.95 in 2.0 mi East 17.3 mph 24.2 mph 0.00 in Snow Light Snow
11:38 PM 8.6 °F -8.3 °F 6.8 °F 92% 29.96 in 2.0 mi East 15.0 mph - 0.00 in Snow Light Snow
11:53 PM 9.0 °F -9.0 °F 6.1 °F 88% 30.13 in 1.8 mi East 17.3 mph 24.2 mph 0.00 in Snow Light Snow